This is the latest recevied weather packets stored in our database for station/object DG9MHV-10. If no packets are shown the sender has not sent any weather packets the latest 10 day(s).
| Time | Temp. | Humidity | Pressure | Rain* | Wind** | Luminosity | Snow |
|---|---|---|---|---|---|---|---|
| 1777469177 | 17.78° C | 78% | 1020.6 hPa | - | - | - | - |
| 1777468277 | 17.22° C | 85% | 1020.6 hPa | - | - | - | - |
| 1777467376 | 17.78° C | 87% | 1020.6 hPa | - | - | - | - |
| 1777466476 | 17.78° C | 86% | 1020.6 hPa | - | - | - | - |
| 1777465576 | 17.22° C | 93% | 1020.6 hPa | - | - | - | - |
| 1777464676 | 17.22° C | 99% | 1020.7 hPa | - | - | - | - |
| 1777463776 | 17.22° C | 97% | 1020.9 hPa | - | - | - | - |
| 1777462876 | 16.67° C | 97% | 1020.7 hPa | - | - | - | - |
| 1777461976 | 16.67° C | 100% | 1020.8 hPa | - | - | - | - |
| 1777461076 | 16.67° C | 100% | 1021 hPa | - | - | - | - |
| 1777460176 | 16.11° C | 100% | 1020.9 hPa | - | - | - | - |
| 1777459276 | 16.11° C | 100% | 1021 hPa | - | - | - | - |
| 1777458376 | 16.11° C | 100% | 1021 hPa | - | - | - | - |
| 1777457476 | 16.11° C | 100% | 1021.2 hPa | - | - | - | - |
| 1777456575 | 16.11° C | 100% | 1021 hPa | - | - | - | - |
| 1777455675 | 16.67° C | 100% | 1020.9 hPa | - | - | - | - |
| 1777454775 | 16.11° C | 100% | 1021 hPa | - | - | - | - |
| 1777453875 | 16.11° C | 100% | 1021.1 hPa | - | - | - | - |
| 1777452975 | 16.67° C | 100% | 1021.1 hPa | - | - | - | - |
| 1777452075 | 17.78° C | 100% | 1021.1 hPa | - | - | - | - |
| 1777451175 | 16.67° C | 100% | 1020.9 hPa | - | - | - | - |
| 1777450275 | 16.11° C | 100% | 1021.2 hPa | - | - | - | - |
| 1777449375 | 13.33° C | 100% | 1021 hPa | - | - | - | - |
| 1777448475 | 12.22° C | 100% | 1021.1 hPa | - | - | - | - |
| 1777447574 | 11.67° C | 100% | 1020.9 hPa | - | - | - | - |
* Rain since midnight (hover to see other rain measurements)
** Current wind speed in m/s (hover to see current wind gust speed)